Regional Weather Roundup
Issued by NWS

Home | Current Version | Previous Version | Text Only | Print | Product List | Glossary Off
Versions: 1 2 3 4 5 6 7 8 9 10 11 12 13 14 15 16 17 18 19 20 21 22 23 24 25 26 27 28 29 30 31 32 33 34 35 36 37 38 39 40 41 42 43 44 45 46 47 48 49 50

000
ASUS43 KMPX 270010
RWRMN
WEATHER ROUNDUP FOR MINNESOTA
NATIONAL WEATHER SERVICE TWIN CITIES/CHANHASSEN MN
700 PM CDT THU MAR 26 2015


NOTE: "FAIR" INDICATES FEW OR NO CLOUDS BELOW 12,000 FEET WITH NO
SIGNIFICANT WEATHER AND/OR OBSTRUCTIONS TO VISIBILITY. N/A MEANS
CURRENT SKY AND/OR WEATHER CONDITIONS ARE NOT AVAILABLE.

MNZ060>063-068>070-270100-
   Twin Cities Metro

CITY           SKY/WX    TMP DP  RH WIND       PRES   REMARKS
TWIN CITIES    PTCLDY    33  10  38 N16       30.12R WCI  23
6HR MIN TEMP:  33; 6HR MAX TEMP:  36;

ST PAUL        CLEAR     33   7  33 N14G25    30.13R WCI  23
CRYSTAL        CLEAR     33   5  30 N16       30.12R WCI  23
BLAINE         PTCLDY    36   9  32 N17       30.12R
LAKEVILLE      PTCLDY    30  16  55 NW13      30.11R WCI  20
EDEN PRAIRIE   PTCLDY    33  12  41 NW15      30.11R WCI  23
6HR MIN TEMP:  33; 6HR MAX TEMP:  34;

SOUTH ST PAUL  PTCLDY    34   9  35 N9        30.12R WCI  26
LAKE ELMO      FAIR      34  12  40 NW14      30.11S WCI  24
$$
MNZ001>005-007-008-013>017-022>024-027-028-270100-
   Northwest Minnesota

CITY           SKY/WX    TMP DP  RH WIND       PRES   REMARKS
BEMIDJI        CLEAR     26  -2  29 N10G17    30.19S WCI  17
HALLOCK        CLEAR     28   9  43 N12       30.30R WCI  18
ROSEAU         CLEAR     28   9  43 N12       30.26R WCI  18
WARROAD        CLEAR     25   9  50 E3        30.25S
THIEF RVR FALL CLEAR     27   7  43 N12       30.26R WCI  16
CROOKSTON      CLEAR     28  10  47 N14       30.29R WCI  17
FOSSTON        CLEAR     28   7  40 N16       30.23R WCI  17
DETROIT LAKES  CLEAR     28  14  54 N10G22    30.21S WCI  19
MOORHEAD       CLEAR     30   3  31 N20G25    30.26R WCI  18
PARK RAPIDS    CLEAR     29  -5  22 N17       30.17R WCI  17
MAHNOMEN       FAIR      27  12  51 N14G20    30.23R WCI  16
$$
MNZ006-009>011-018-025>026-270100-
   North Central Minnesota

CITY           SKY/WX    TMP DP  RH WIND       PRES   REMARKS
BAUDETTE       CLEAR     24   1  36 N14       30.22S WCI  12
FLAG ISLAND    CLEAR     23   7  50 NW14      30.25R WCI  11
INTL FALLS     CLEAR     24   0  35 N13       30.19R WCI  12
6HR MIN TEMP:  22; 6HR MAX TEMP:  27;

WASKISH        CLEAR     25   1  36 N10G20    30.23R WCI  15
BIG FORK       CLEAR     27   0  31 N7        30.18R WCI  19
LONGVILLE      PTCLDY    28   5  37 NW9G16    30.16R WCI  20
GRAND RAPIDS   CLEAR     28   1  31 N9G18     30.14R WCI  20
CRANE LAKE     CLEAR     21  -4  33 NW9G16    30.20R WCI  11
ORR            CLEAR     23  -6  28 NW7       30.15R WCI  15
COOK           CLEAR     25   0  33 NW7       30.17R WCI  17
WALKER         FAIR      26  -3  28 N10       30.18R WCI  16
$$
MNZ012-019>021-037-270100-
   Northeast Minnesota

CITY           SKY/WX    TMP DP  RH WIND       PRES   REMARKS
DULUTH         PTCLDY    27   1  32 N15       30.10R WCI  15
6HR MIN TEMP:  26; 6HR MAX TEMP:  30;

ELY            CLEAR     21  -2  35 N7        30.13S WCI  13
HIBBING        CLEAR     26  -2  29 N16G23    30.14R WCI  14
EVELETH        CLEAR     27  -4  26 N14G23    30.15R WCI  15
DULUTH HARBOR  CLEAR     30   7  37 N13       30.16R WCI  20
TWO HARBORS    CLEAR     30   7  37 N3        30.11R
SILVER BAY     CLEAR     27   0  31 N7        30.11R WCI  19
GRAND MARAIS     N/A     25   3  38 NW6       30.16R WCI  18
G MARAIS ARPRT CLEAR     18  -2  41 NW10G20   30.07R WCI   6
$$
MNZ029>031-032-039>041-046>048-054>057-064-270100-
   West Central Minnesota

CITY           SKY/WX    TMP DP  RH WIND       PRES   REMARKS
FERGUS FALLS   CLEAR     28   7  40 N12G24    30.24R WCI  18
WHEATON        CLEAR     30  10  43 N15G24    30.25R WCI  19
MORRIS         CLEAR     30  16  55 N17       30.19R WCI  18
ALEXANDRIA     CLEAR     30  11  45 N14G21    30.16R WCI  19
ELBOW LAKE     FAIR      29  12  48 N17       30.20R WCI  17
WADENA         CLEAR     28   9  43 N10       30.17R WCI  19
GLENWOOD       CLEAR     30  12  47 NW13      30.16S WCI  20
APPLETON       CLEAR     34  12  40 N14       30.20R WCI  24
BENSON         CLEAR     32  14  47 N13       30.19R WCI  22
ORTONVILLE     CLEAR     32  12  43 N20       30.21R WCI  20
MADISON        CLEAR     34  14  44 N15G21    30.20R WCI  24
WILLMAR        FAIR      30  16  55 N9        30.18R WCI  22
$$
MNZ033>034-036-042>043-049>051-058-059-270100-
   Central Minnesota

CITY           SKY/WX    TMP DP  RH WIND       PRES   REMARKS
ST CLOUD       CLEAR     32   9  38 N12       30.13R WCI  23
6HR MIN TEMP:  30; 6HR MAX TEMP:  35;

SAUK CENTRE    FAIR      31   8  38 N14       30.15S WCI  21
PAYNESVILLE    CLEAR     29  14  54 W9        30.15S WCI  20
AITKIN         CLEAR     32   3  29 NW6       30.13R WCI  26
PINE RIVER     CLEAR     28   7  40 NW12G18   30.20R WCI  18
BRAINERD       CLEAR     29   3  33 N16       30.16R WCI  17
STAPLES        CLEAR     28   0  29 N12       30.16R WCI  18
LONG PRAIRIE   FAIR      30   7  37 NW10G18   30.15R WCI  21
LITTLE FALLS   CLEAR     32   3  29 N7        30.15R WCI  26
LITCHFIELD     CLEAR     30  18  59 NW8       30.15S WCI  23
BUFFALO        CLEAR     32   7  34 N10G18    30.14R WCI  24
MAPLE LAKE     CLEAR     33  13  43 N10       30.14S WCI  25
$$
MNZ037-044-045-052-053-270100-
   East Central Minnesota

CITY           SKY/WX    TMP DP  RH WIND       PRES   REMARKS
PRINCETON      CLEAR     34   7  32 N8        30.14R WCI  27
MORA           CLEAR     32   5  32 N6        30.14S WCI  26
CAMBRIDGE      CLEAR     34  14  44 NW8       30.11S WCI  27
RUSH CITY      CLEAR     32   5  32 N12       30.13R WCI  23
MOOSE LAKE     CLEAR     30   3  31 N12       30.12R WCI  21
HINCKLEY       FAIR      32   5  32 N8G16     30.13R WCI  25
CLOQUET        CLEAR     27   0  31 N14G20    30.12R WCI  15
MCGREGOR       CLEAR     30   5  34 N13G18    30.14R WCI  20
$$
MNZ071>073-080-081-089-090-097-098-270100-
   Southwest Minnesota

CITY           SKY/WX    TMP DP  RH WIND       PRES   REMARKS
MONTEVIDEO     CLEAR     34  18  51 NE17      30.20R WCI  23
GRANITE FALLS  PTCLDY    31  19  61 N8        30.20S WCI  23
CANBY          CLOUDY    32  16  51 NW9       30.20S WCI  24
MARSHALL       MOCLDY    30  14  51 N16       30.19R WCI  19
REDWOOD FALLS  CLOUDY    30  18  60 NW13G20   30.18R WCI  20
OLIVIA         MOCLDY    28  18  64 N8G17     30.17R WCI  20
PIPESTONE      CLEAR     34  18  51 N12G17    30.14S WCI  25
WINDOM         CLOUDY    30  19  64 N17       30.15R WCI  18
WORTHINGTON    CLOUDY    30  16  55 N21       30.16R WCI  17
JACKSON        CLOUDY    32  19  59 N10G23    30.15R WCI  24
TRACY          CLOUDY    31  20  63 N20       30.17R WCI  18
SLAYTON        CLOUDY    30  16  55 N20       30.16R WCI  17
$$
MNZ065>067-074>077-082>085-091>093-270100-
   South Central Minnesota

CITY           SKY/WX    TMP DP  RH WIND       PRES   REMARKS
MANKATO        CLOUDY    30  18  59 NW16      30.14R WCI  19
NEW ULM        CLOUDY    30  19  64 N13       30.15S WCI  20
ST JAMES       CLOUDY    32  21  64 NW16      30.17R WCI  21
FAIRMONT       CLOUDY    30  18  59 NW17      30.14R WCI  18
GLENCOE        PTCLDY    31  21  67 W10       30.14R WCI  22
FARIBAULT      CLOUDY    30  19  64 NW10      30.12R WCI  21
OWATONNA       CLOUDY    30  21  69 NW13      30.11S WCI  20
WASECA         CLOUDY    32  23  69 NW13G20   30.13S WCI  22
ALBERT LEA     CLOUDY    30  21  69 NW13      30.11R WCI  20
$$
MNZ078>079-086>088-094>096-270100-
   Southeast Minnesota

CITY           SKY/WX    TMP DP  RH WIND       PRES   REMARKS
ROCHESTER      CLOUDY    30  20  66 NW17      30.08R WCI  18
6HR MIN TEMP:  29; 6HR MAX TEMP:  32;

RED WING       MOCLDY    34  12  40 N6        30.10R WCI  29
STANTON        CLOUDY    32  20  59 NW8       30.10R WCI  25
DODGE CENTER   CLOUDY    30  23  74 NW12      30.09R WCI  21
WINONA         CLOUDY    34  19  55 NW13      30.10R WCI  25
AUSTIN         CLOUDY    30  21  69 NW14      30.09S WCI  20
PRESTON        CLOUDY    30  20  67 NW14      30.07S WCI  20
$$
ABBREVIATIONS USED IN REMARKS
   TC - TEMPERATURES IN CELSIUS
  WCI - WIND CHILL INDEX
   HX - HEAT INDEX
  VSB - VISIBILITY
$$



USA.gov is the U.S. government's official web portal to all federal, state and local government web resources and services.